25. September 2022

Uhrzeit Code Wetter Temp. Sichtweite Wolkendecke Wind METAR/SPECI
8:00 am
V
45 °F 40 mi 11.000 ft Var Var 2 kt METAR CYYC 251400Z VRB02KT 40SM BKN110 BKN300 07/M00 A3024 RMK AC5CI1 SLP258
7:00 am
V
43 °F 20 mi - Var 000° 0 kt METAR CYYC 251300Z 00000KT 20SM FEW110 FEW220 06/M00 A3024 RMK AC2CI1 CI TR SLP256
6:00 am
V
45 °F 15 mi - Var 000° 0 kt METAR CYYC 251200Z 00000KT 15SM FEW140 07/M00 A3025 RMK AC1 AC TR SLP257
5:00 am
V
46 °F 15 mi - 330° 330° 6 kt METAR CYYC 251100Z 33006KT 15SM SKC 08/M00 A3024 RMK SLP249
4:00 am
V
41 °F 15 mi - 340° 340° 4 kt METAR CYYC 251000Z 34004KT 15SM SKC 05/M01 A3024 RMK SLP254
3:00 am
V
46 °F 15 mi - 340° 340° 3 kt METAR CYYC 250900Z 34003KT 340V040 15SM SKC 08/M01 A3024 RMK SLP251
2:00 am
V
46 °F 15 mi - 340° 340° 2 kt METAR CYYC 250800Z 34002KT 15SM FEW140 08/M00 A3025 RMK AC1 AC TR SLP254
1:00 am
V
48 °F 15 mi - 360° 360° 5 kt METAR CYYC 250700Z 36005KT 15SM SKC 09/M01 A3024 RMK SLP253
12:00 am
V
50 °F 15 mi - 340° 340° 2 kt METAR CYYC 250600Z 34002KT 15SM SKC 10/M01 A3024 RMK SLP250

24. September 2022

Uhrzeit Code Wetter Temp. Sichtweite Wolkendecke Wind METAR/SPECI
11:00 pm
V
54 °F 15 mi - 030° 030° 4 kt METAR CYYC 250500Z 03004KT 15SM SKC 12/M01 A3023 RMK SLP246 DENSITY ALT 3800FT
10:00 pm
V
59 °F 15 mi - 310° 310° 10 kt METAR CYYC 250400Z 31010KT 15SM FEW250 15/M01 A3023 RMK CI1 CI TR SLP242 DENSITY ALT 4200FT
9:00 pm
V
59 °F 15 mi - 290° 290° 3 kt METAR CYYC 250300Z 29003KT 260V010 15SM FEW230 15/M01 A3020 RMK CI1 CI TR SLP238 DENSITY ALT 4100FT
8:00 pm
V
63 °F 40 mi - 290° 290° 7 kt METAR CYYC 250200Z 29007KT 40SM FEW180 FEW230 17/M01 A3019 RMK AC1CI1 AC TR CONTRAILS SLP230 DENSITY ALT 4400FT
7:00 pm
V
66 °F 20 mi - 300° 300° 9 kt METAR CYYC 250100Z 30009KT 20SM FEW076 FEW230 19/M02 A3016 RMK AC1CI2 AC TR CONTRAILS SLP218 DENSITY ALT 4700FT
6:00 pm
V
70 °F 30 mi 23.000 ft 290° 290° 12 kt METAR CYYC 250000Z 29012KT 30SM FEW076 BKN230 21/M02 A3016 RMK AC1CI5 AC TR CONTRAILS SLP213 DENSITY ALT 4900FT
5:00 pm
V
70 °F 30 mi 23.000 ft 280° 280° 6 - 15 kt METAR CYYC 242300Z 28006G15KT 270V330 30SM FEW076 BKN230 21/M03 A3015 RMK AC1CI6 CONTRAILS SLP210 DENSITY ALT 4900FT
4:00 pm
V
70 °F 30 mi - 300° 300° 11 kt METAR CYYC 242200Z 30011KT 230V320 30SM FEW076 SCT230 21/M02 A3014 RMK AC1CI3 CONTRAILS SLP206 DENSITY ALT 5000FT
3:00 pm
V
70 °F 30 mi - 230° 230° 8 kt METAR CYYC 242100Z 23008KT 210V350 30SM FEW076 SCT230 21/M02 A3014 RMK AC1CI3 SLP207 DENSITY ALT 4900FT
2:00 pm
V
68 °F 40 mi - Var Var 3 kt METAR CYYC 242000Z VRB03KT 40SM FEW074 FEW230 20/00 A3014 RMK AC1CI1 CONTRAILS SLP208 DENSITY ALT 4800FT
1:00 pm
V
66 °F 40 mi - Var Var 7 - 24 kt METAR CYYC 241900Z VRB07G24KT 40SM FEW070 FEW230 19/00 A3014 RMK AC1CI1 CONTRAILS SLP209 DENSITY ALT 4700FT
12:00 pm
V
66 °F 40 mi - 360° 360° 11 - 17 kt METAR CYYC 241800Z 36011G17KT 40SM FEW070 FEW230 19/01 A3013 RMK AC1CI1 AC TR CI TR CONTRAILS SLP208 DENSITY ALT 4700FT
11:22 am
V
64 °F 40 mi - 020° 020° 11 - 16 kt METAR CYYC 241722Z 02011G16KT 330V040 40SM FEW070 FEW100 FEW230 18/02 A3013 RMK AC1AC1CI1 AC TR AC TR CI TR WSHFT 1707 SLP210 DENSITY ALT 4600FT
11:00 am
V
64 °F 40 mi - 340° 340° 13 - 18 kt METAR CYYC 241700Z 34013G18KT 300V360 40SM FEW070 FEW100 FEW230 18/01 A3012 RMK AC1AC1CI1 AC TR AC TR CI TR ACC ASOCTD SLP205 DENSITY ALT 4600FT
10:00 am
V
63 °F 40 mi - 290° 290° 16 kt METAR CYYC 241600Z 29016KT 40SM FEW062 FEW100 FEW230 17/01 A3010 RMK CU1AC1CI1 CU TR AC TR CI TR CONTRAILS SLP199 DENSITY ALT 4500FT
9:00 am
V
57 °F 40 mi - 280° 280° 11 kt METAR CYYC 241500Z 28011KT 40SM FEW054 FEW100 FEW230 14/01 A3007 RMK SC1AC1CI1 SC TR AC TR CI TR CONTRAILS SLP192 DENSITY ALT 4300FT
8:00 am
V
55 °F 40 mi - 280° 280° 9 kt METAR CYYC 241400Z 28009KT 40SM FEW044 FEW100 FEW230 13/01 A3005 RMK SC1AC1CI1 SC TR AC TR CI TR SLP185 DENSITY ALT 4100FT
7:00 am
V
57 °F 20 mi - 280° 280° 10 - 18 kt METAR CYYC 241300Z 28010G18KT 20SM FEW085 SCT100 SCT140 14/00 A3003 RMK AC1AC3AC1 AC TR AC TR SLP175 DENSITY ALT 4200FT
6:00 am
V
55 °F 15 mi - 280° 280° 10 kt METAR CYYC 241200Z 28010KT 15SM FEW093 FEW130 FEW160 13/01 A3000 RMK AC1AC1AC1 AC TR AC TR AC TR SLP164 DENSITY ALT 4200FT
5:00 am
V
57 °F 15 mi 9.500 ft 280° 280° 9 kt METAR CYYC 241100Z 28009KT 15SM BKN095 BKN130 14/01 A2999 RMK AC5AC1 SLP158 DENSITY ALT 4200FT
4:00 am
V
57 °F 15 mi 12.000 ft 290° 290° 11 - 16 kt METAR CYYC 241000Z 29011G16KT 15SM FEW097 BKN120 14/00 A2998 RMK AC2AC4 SLP153 DENSITY ALT 4300FT
3:00 am
V
55 °F 15 mi - 280° 280° 9 kt METAR CYYC 240900Z 28009KT 15SM FEW110 SCT150 13/01 A2996 RMK AC1AC2 SLP150 DENSITY ALT 4200FT
2:00 am
V
55 °F 15 mi - 270° 270° 10 kt METAR CYYC 240800Z 27010KT 15SM FEW097 SCT160 13/01 A2994 RMK AC1AC2 SLP143 DENSITY ALT 4300FT
1:00 am
V
57 °F 15 mi 9.700 ft 280° 280° 13 - 20 kt METAR CYYC 240700Z 28013G20KT 15SM BKN097 14/00 A2993 RMK AC5 SLP135 DENSITY ALT 4400FT
12:00 am
V
55 °F 15 mi - 280° 280° 11 kt METAR CYYC 240600Z 28011KT 15SM SCT094 SCT130 13/M00 A2993 RMK AC3AC1 AC TR SLP138 DENSITY ALT 4300FT

23. September 2022

Uhrzeit Code Wetter Temp. Sichtweite Wolkendecke Wind METAR/SPECI
11:00 pm
V
55 °F 15 mi - 280° 280° 12 - 19 kt METAR CYYC 240500Z 28012G19KT 15SM SCT095 13/M01 A2992 RMK AC4 SLP135 DENSITY ALT 4300FT
10:00 pm
V
57 °F 15 mi - 280° 280° 12 - 17 kt METAR CYYC 240400Z 28012G17KT 15SM SCT090 14/M00 A2991 RMK AC4 SLP131 DENSITY ALT 4400FT
9:00 pm
V
57 °F 15 mi 23.000 ft 280° 280° 13 kt METAR CYYC 240300Z 28013KT 15SM SCT140 BKN230 14/00 A2990 RMK AC3CI2 SLP129 DENSITY ALT 4400FT
8:00 pm
V
57 °F 15 mi 23.000 ft 280° 280° 12 kt METAR CYYC 240200Z 28012KT 15SM FEW098 SCT160 BKN230 14/00 A2989 RMK AC1AC3CI2 AC TR SLP130 DENSITY ALT 4500FT
7:00 pm
V
61 °F 15 mi 23.000 ft 270° 270° 14 - 24 kt METAR CYYC 240100Z 27014G24KT 15SM SCT092 SCT190 BKN230 16/00 A2987 RMK AC3AC1CI1 SLP119 DENSITY ALT 4700FT
6:00 pm
V
64 °F 10 mi 23.000 ft 280° 280° 16 - 24 kt METAR CYYC 240000Z 28016G24KT 10SM FEW074 BKN230 18/00 A2986 RMK AC2CI3 CC ASOCTD SLP115 DENSITY ALT 4900FT
5:00 pm
V
66 °F 12 mi 23.000 ft 270° 270° 12 - 24 kt METAR CYYC 232300Z 27012G24KT 12SM FEW074 BKN230 19/00 A2986 RMK AC2CI5 ACC ASOCTD / CC ASOCTD SLP111 DENSITY ALT 5000FT
4:00 pm
V
66 °F 15 mi 23.000 ft 280° 280° 13 - 23 kt METAR CYYC 232200Z 28013G23KT 230V300 15SM FEW074 FEW130 BKN230 19/00 A2986 RMK ACC1AC1CI3 AC LENT / CC ASOCTD SLP109 DENSITY ALT 5000FT
3:00 pm
V
64 °F 15 mi 23.000 ft 270° 270° 11 - 17 kt METAR CYYC 232100Z 27011G17KT 220V290 15SM FEW074 SCT130 BKN230 18/01 A2987 RMK ACC1AC3CI2 ACC TR SLP121 DENSITY ALT 4900FT
2:00 pm
V
64 °F 20 mi 8.000 ft 300° 300° 17 - 25 kt METAR CYYC 232000Z 30017G25KT 20SM BKN080 OVC230 18/01 A2989 RMK AC5CI3 VIRGA SLP131 DENSITY ALT 4900FT
1:00 pm
V
66 °F 20 mi 15.000 ft 270° 270° 9 kt METAR CYYC 231900Z 27009KT 220V310 20SM FEW110 BKN150 BKN230 19/M00 A2987 RMK AC2AC4CI1 VIRGA SW-N SLP124 DENSITY ALT 5000FT
12:00 pm
V
66 °F 20 mi 23.000 ft 090° 090° 5 kt METAR CYYC 231800Z 09005KT 040V130 20SM SCT072 SCT130 BKN230 BKN300 19/02 A2988 RMK AC3AC1CI2CS1 SLP125 DENSITY ALT 5000FT
11:00 am
V
64 °F 30 mi 17.000 ft 330° 330° 11 kt METAR CYYC 231700Z 33011KT 30SM FEW110 BKN170 BKN230 18/00 A2988 RMK AC2AC4CI1 SLP128 DENSITY ALT 4900FT
10:00 am
V
66 °F 40 mi 23.000 ft 330° 330° 10 kt METAR CYYC 231600Z 33010KT 40SM FEW130 BKN230 19/00 A2986 RMK AC1CI6 ACC ASOCTD SLP121 DENSITY ALT 5000FT
9:00 am
V
63 °F 20 mi 23.000 ft 310° 310° 12 kt METAR CYYC 231500Z 31012KT 20SM FEW080 BKN230 17/M00 A2984 RMK AC1CI5 AC TR ACC ASOCTD SLP114 DENSITY ALT 4800FT
Ältere Daten

Wir und Dritte verfolgen dein Internetverhalten auf unserer Website mit Cookies. Wenn du fortfährst, gehen wir davon aus, dass du mit unserer Cookie-Richtlinie einverstanden bist. Mehr erfahren